Simultaneous Nadir Overpasses (SNOs) Predictions

Prediction of SNOs between AURA and NPP Satellite Orbit:

Table of predicted SNOs for the next 14.0 days since TLE Epoch: 5/13/2023
Index Date (AURA) Time (AURA) Lat,Lon (AURA) SZA (AURA ) Date (NPP) Time (NPP) Lat,Lon (NPP) SZA (NPP ) Distance(km) Time Diff (sec)
1 05/14/2023 16:44:38 79.61,-173.00 73.60 05/14/2023 16:43:39 79.62,-172.89 73.62 2.28 59
2 05/14/2023 17:34:01 -79.74, -4.43 106.61 05/14/2023 17:34:21 -79.73, -4.58 106.59 3.04 20
3 05/17/2023 08:10:49 -79.56, 135.12 106.94 05/17/2023 08:09:50 -79.56, 135.11 106.90 0.28 59
4 05/17/2023 09:00:08 79.79, -55.54 72.71 05/17/2023 09:00:27 79.80, -55.55 72.70 0.16 19
5 05/19/2023 23:36:57 79.53, 83.38 72.54 05/19/2023 23:35:59 79.52, 83.24 72.61 3.08 58
6 05/20/2023 00:26:17 -79.77,-107.23 107.83 05/20/2023 00:26:37 -79.77,-107.32 107.83 1.79 20
7 05/22/2023 15:03:02 -79.62, 32.44 108.11 05/22/2023 15:02:05 -79.63, 32.55 108.09 2.30 57
8 05/22/2023 15:52:20 79.88,-157.96 71.50 05/22/2023 15:52:41 79.88,-157.82 71.46 2.73 21
9 05/25/2023 06:29:06 79.64, -18.94 71.39 05/25/2023 06:28:12 79.64, -18.89 71.42 1.05 54



Historial Predications of SNOs between AURA and NPP
